Regional Weather Roundup
Issued by NWS

Home | Current Version | Previous Version | Graphics & Text | Print | Product List | Glossary On
Versions: 1 2 3 4 5 6 7 8 9 10 11 12 13 14 15 16 17 18 19 20 21 22 23 24 25 26 27 28 29 30 31 32 33 34 35 36 37 38 39 40 41 42 43 44 45 46 47 48 49 50
000
ASUS43 KLMK 061010
RWRKY
KENTUCKY REGIONAL WEATHER ROUNDUP
NATIONAL WEATHER SERVICE LOUISVILLE KY
600 AM EDT WED MAY 06 2015

NOTE "FAIR" INDICATES FEW OR NO CLOUDS BELOW 12,000 FEET
WITH NO SIGNIFICANT WEATHER AND/OR OBSTRUCTIONS TO VISIBILITY.

KYZ001>023-026-027-061>063-070>075-061100-
WESTERN AND SOUTH CENTRAL KENTUCKY

CITY           SKY/WX    TMP DP  RH WIND       PRES   REMARKS
PADUCAH        CLEAR     57  54  89 CALM      30.14S
HENDERSON      CLEAR     55  52  88 CALM      30.15S
OWENSBORO      CLEAR     61  55  80 CALM      30.17S
HOPKINSVILLE   CLEAR     60  56  87 E2        30.17S
BOWLING GREEN  MOCLDY    62  57  83 CALM      30.18S
GLASGOW        CLOUDY    59  56  91 CALM      30.18F
$$

KYZ024-025-028>034-038-045-046-053-061100-
NORTH CENTRAL KENTUCKY

CITY           SKY/WX    TMP DP  RH WIND       PRES   REMARKS
LOUISVILLE/SDF PTCLDY    62  56  80 CALM      30.19R
LOUISVILLE/LOU CLEAR     61  55  81 CALM      30.19S
FORT KNOX      CLEAR     57  53  86 CALM      30.17S
$$

KYZ035>037-039>044-047>052-055>060-089>105-061100-
NORTHEAST KENTUCKY

CITY           SKY/WX    TMP DP  RH WIND       PRES   REMARKS
LEXINGTON      CLEAR     59  54  83 CALM      30.20F
COVINGTON      PTCLDY    57  53  86 CALM      30.20S
FRANKFORT      CLEAR     54  52  93 CALM      30.19S
$$

KYZ054-064>069-076>088-106>120-061100-
SOUTHEAST KENTUCKY

CITY           SKY/WX    TMP DP  RH WIND       PRES   REMARKS
JACKSON        CLEAR     62  54  74 CALM      30.23S
LONDON         PTCLDY    56  51  84 CALM      30.22S
SOMERSET       PTCLDY    54  54 100 CALM      30.23R
MIDDLESBORO    CLOUDY    56  55  96 CALM      30.25S
MONTICELLO     MOSUNNY   55  55 100 CALM      30.24S
$$



USA.gov is the U.S. government's official web portal to all federal, state and local government web resources and services.